This is the latest recevied weather packets stored in our database for station/object K7FED. If no packets are shown the sender has not sent any weather packets the latest 10 day(s).
| Time | Temp. | Humidity | Pressure | Rain* | Wind** | Luminosity | Snow |
|---|---|---|---|---|---|---|---|
| 1778099704 | 22.22° C | 55% | 1017.4 hPa | 0 mm | - | 870 W/m² | - |
| 1778099407 | 22.22° C | 56% | 1017.5 hPa | 0 mm | - | 927 W/m² | - |
| 1778099096 | 22.22° C | 53% | 1017.6 hPa | 0 mm | - | 928 W/m² | - |
| 1778098790 | 22.22° C | 53% | 1017.6 hPa | 0 mm | - | 740 W/m² | - |
| 1778098490 | 22.22° C | 55% | 1017.7 hPa | 0 mm | - | 469 W/m² | - |
| 1778098190 | 21.67° C | 55% | 1017.7 hPa | 0 mm | - | 262 W/m² | - |
| 1778097875 | 21.67° C | 55% | 1017.8 hPa | 0 mm | - | 257 W/m² | - |
| 1778097577 | 21.67° C | 54% | 1017.8 hPa | 0 mm | - | 100 W/m² | - |
| 1778097268 | 21.67° C | 55% | 1017.8 hPa | 0 mm | - | 507 W/m² | - |
| 1778096967 | 22.22° C | 55% | 1017.8 hPa | 0 mm | - | 262 W/m² | - |
| 1778096661 | 22.22° C | 53% | 1017.8 hPa | 0 mm | - | 554 W/m² | - |
| 1778096360 | 21.67° C | 54% | 1017.8 hPa | 0 mm | - | 300 W/m² | - |
| 1778096061 | 21.67° C | 53% | 1017.9 hPa | 0 mm | - | 90 W/m² | - |
| 1778095761 | 21.11° C | 55% | 1017.9 hPa | 0 mm | - | 349 W/m² | - |
| 1778095461 | 21.11° C | 56% | 1017.9 hPa | 0 mm | - | 783 W/m² | - |
| 1778095162 | 21.11° C | 58% | 1018 hPa | 0 mm | - | 785 W/m² | - |
| 1778094862 | 21.67° C | 56% | 1018 hPa | 0 mm | - | 821 W/m² | - |
| 1778094561 | 21.67° C | 55% | 1018.1 hPa | 0 mm | - | 558 W/m² | - |
| 1778094262 | 21.67° C | 56% | 1018.1 hPa | 0 mm | - | 77 W/m² | - |
| 1778093961 | 21.11° C | 56% | 1018.2 hPa | 0 mm | - | 79 W/m² | - |
| 1778093662 | 21.11° C | 55% | 1018.2 hPa | 0 mm | - | 80 W/m² | - |
| 1778093360 | 20.56° C | 58% | 1018.3 hPa | 0 mm | - | 84 W/m² | - |
| 1778093061 | 20.56° C | 60% | 1018.3 hPa | 0 mm | - | 129 W/m² | - |
| 1778092761 | 20.56° C | 60% | 1018.4 hPa | 0 mm | - | 68 W/m² | - |
| 1778092461 | 20.56° C | 60% | 1018.4 hPa | 0 mm | - | 470 W/m² | - |
* Rain latest hour (hover to see other rain measurements)
** Current wind speed in m/s (hover to see current wind gust speed)